IRIDIUM 108

Last updated on Tue Sep 22 2026 00:03:20 GMT+0000 (Coordinated Universal Time)

1 41924U 17003H 26264.59461220 .00000051 00000+0 10982-4 0 9999 2 41924 86.4013 16.4408 0002157 95.8884 264.2557 14.34217854508928
UTC large
Height (km)
Speed (km/s)
/
Latitude / Longitude
Inclination (degrees)
Orbital Period (minutes)
Azimuth
Elevation
Range (km)
Doppler Factor

Next 0 passes for location: London (51.5072 / 0.1276)

No passes found over London.
IRIDIUM 108